Cahokia, IL

5:36 PM CST on February 05, 2016 (GMT -0600)
Saint Louis Downtown

Weather History for KCPS - October, 2013

Change the Weather History Date:

Thursday, October 10, 2013

  Actual Average Record
Temperature  
Mean Temperature 64 °F -  
Max Temperature 80 °F 61 °F 91 °F (1963)
Min Temperature 48 °F 46 °F 27 °F (2000)
Degree Days  
Heating Degree Days 1    
Growing Degree Days 14 (Base 50)    
Moisture  
Dew Point 53 °F    
Average Humidity 86    
Maximum Humidity 100    
Minimum Humidity 43    
Precipitation  
Precipitation 0.00 in - - ()
Sea Level Pressure  
Sea Level Pressure 30.10 in    
Wind  
Wind Speed 1 mph (SSE)    
Max Wind Speed 9 mph    
Max Gust Speed -    
Visibility 6 miles    
Events Fog    
Averages and records for this station are not official NWS values.
T = Trace of Precipitation, MM = Missing Value Source: NWS Daily Summary

Daily Weather History Graph

Daily Weather History Graph

Search for Another Location

Airport or City:

Trip Planner

Search our weather history database for the weather conditions in past years. The results will help you decide how hot, cold, wet, or windy it might be!

Date:

Astronomy

Oct. 10, 2013 Rise Set
Actual Time 7:05 AM CDT 6:29 PM CDT
Civil Twilight 6:38 AM CDT 6:55 PM CDT
Nautical Twilight 6:07 AM CDT 7:26 PM CDT
Astronomical Twilight 5:37 AM CDT 7:57 PM CDT
Moon 12:54 PM CDT (10/10) 11:09 PM CDT (10/10)
Length of Visible Light 12h 17m
Length of Day
11h 24m
Waxing Crescent, 36% of the Moon is Illuminated
Oct 10
Waxing Crescent
Oct 11
First Quarter
Oct 18
Full
Oct 26
Last Quarter
Nov 3
New

Hourly Weather History & Observations

Time (CDT) Temp. Heat Index Dew Point Humidity Pressure Visibility Wind Dir Wind Speed Gust Speed Precip Events Conditions
12:53 AM 53.1 °F - 52.0 °F 96% 30.11 in 10.0 mi Calm Calm - N/A   Clear
1:44 AM 51.8 °F - 51.8 °F 100% 30.11 in 0.8 mi Calm Calm - N/A   Clear
1:53 AM 51.1 °F - 50.0 °F 96% 30.11 in 0.5 mi Calm Calm - N/A Fog Fog
2:12 AM 51.8 °F - 51.8 °F 100% 30.11 in 2.0 mi Calm Calm - N/A   Clear
2:20 AM 51.8 °F - 51.8 °F 100% 30.11 in 7.0 mi Calm Calm - N/A   Clear
2:53 AM 52.0 °F - 51.1 °F 97% 30.11 in 8.0 mi Calm Calm - N/A   Partly Cloudy
2:58 AM 51.8 °F - 51.8 °F 100% 30.11 in 1.2 mi Calm Calm - N/A   Partly Cloudy
3:06 AM 51.8 °F - 50.0 °F 94% 30.11 in 0.5 mi Calm Calm - N/A Fog Fog
3:12 AM 51.8 °F - 51.8 °F 100% 30.11 in 2.5 mi Calm Calm - N/A   Clear
3:19 AM 51.8 °F - 50.0 °F 94% 30.11 in 5.0 mi Calm Calm - N/A   Clear
3:42 AM 51.8 °F - 50.0 °F 94% 30.12 in 1.5 mi Calm Calm - N/A   Clear
3:51 AM 51.8 °F - 50.0 °F 94% 30.12 in 0.8 mi Calm Calm - N/A   Clear
3:53 AM 51.1 °F - 50.0 °F 96% 30.11 in 0.8 mi Calm Calm - N/A   Clear
3:57 AM 50.0 °F - 50.0 °F 100% 30.12 in 3.0 mi Calm Calm - N/A   Partly Cloudy
4:50 AM 51.8 °F - 50.0 °F 94% 30.12 in 1.8 mi Calm Calm - N/A   Partly Cloudy
4:51 AM 51.1 °F - 50.0 °F 96% 30.12 in 1.5 mi Calm Calm - N/A   Scattered Clouds
5:05 AM 51.8 °F - 50.0 °F 94% 30.12 in 3.0 mi Calm Calm - N/A   Partly Cloudy
5:40 AM 50.0 °F - 48.2 °F 94% 30.13 in 1.5 mi Calm Calm - N/A   Clear
5:51 AM 50.0 °F - 48.2 °F 94% 30.13 in 3.0 mi Calm Calm - N/A   Clear
5:53 AM 50.0 °F - 48.9 °F 96% 30.13 in 4.0 mi Calm Calm - N/A   Clear
6:53 AM 48.9 °F - 48.9 °F 100% 30.13 in 10.0 mi Calm Calm - N/A   Clear
7:11 AM 51.8 °F - 50.0 °F 94% 30.13 in 1.0 mi Calm Calm - N/A   Clear
7:18 AM 48.2 °F - 48.2 °F 100% 30.13 in 0.5 mi Calm Calm - N/A Fog Fog
7:24 AM 48.2 °F - 48.2 °F 100% 30.13 in 2.0 mi Calm Calm - N/A   Clear
7:44 AM 50.0 °F - 50.0 °F 100% 30.14 in 1.2 mi Calm Calm - N/A   Clear
7:51 AM 51.8 °F - 51.8 °F 100% 30.14 in 3.0 mi Calm Calm - N/A   Clear
7:53 AM 51.1 °F - 51.1 °F 100% 30.14 in 7.0 mi Calm Calm - N/A   Clear
8:53 AM 60.1 °F - 57.0 °F 90% 30.15 in 7.0 mi Calm Calm - N/A   Clear
9:53 AM 66.0 °F - 59.0 °F 78% 30.16 in 10.0 mi Calm Calm - N/A   Clear
10:53 AM 70.0 °F - 61.0 °F 73% 30.15 in 10.0 mi Calm Calm - N/A   Clear
11:53 AM 73.0 °F - 60.1 °F 64% 30.13 in 10.0 mi Calm Calm - N/A   Mostly Cloudy
12:53 PM 75.0 °F - 57.9 °F 55% 30.11 in 10.0 mi Calm Calm - N/A   Mostly Cloudy
1:53 PM 78.1 °F - 57.0 °F 48% 30.07 in 10.0 mi Variable 5.8 mph - N/A   Partly Cloudy
2:53 PM 78.1 °F - 55.9 °F 46% 30.06 in 10.0 mi South 5.8 mph - N/A   Partly Cloudy
3:53 PM 80.1 °F 80.2 °F 55.9 °F 43% 30.03 in 10.0 mi SSE 9.2 mph - N/A   Mostly Cloudy
4:53 PM 78.1 °F - 55.0 °F 45% 30.02 in 10.0 mi SE 9.2 mph - N/A   Clear
5:53 PM 75.9 °F - 55.0 °F 48% 30.01 in 10.0 mi South 5.8 mph - N/A   Clear
6:53 PM 70.0 °F - 55.9 °F 61% 30.01 in 10.0 mi SSE 3.5 mph - N/A   Clear
7:53 PM 66.0 °F - 55.9 °F 70% 30.01 in 10.0 mi SSE 3.5 mph - N/A   Clear
8:53 PM 63.0 °F - 57.0 °F 81% 30.01 in 10.0 mi SSE 4.6 mph - N/A   Clear
9:53 PM 61.0 °F - 55.9 °F 83% 30.02 in 10.0 mi Calm Calm - N/A   Clear
10:53 PM 55.9 °F - 54.0 °F 93% 30.02 in 10.0 mi Calm Calm - N/A   Clear
11:53 PM 57.0 °F - 54.0 °F 89% 30.02 in 10.0 mi SSE 4.6 mph - N/A   Clear